Torna al catalogo

IRIS

AttivoScienzaSSO
NORAD 39197·PAYLOAD·🇺🇸 United States

Lanciato Jun 28, 2013 da Vandenberg Space Force Base

Loading…

Prossimi Passaggi (prossime 24 ore)

TLE

AggiornatoSource: Space-Track

Epoca: Sep 14, 2026, 12:31 UTC

1 39197U 13033A   26257.52188952  .00000729  00000-0  89324-4 0  9999
2 39197  97.9281  96.5144 0025131  29.5071 330.7556 14.86035771713644

Traccia IRIS in tempo reale con AllMySat

Download on the App Store